Weather reports worldwide

Advertisment
F16-A, Netherlands (6206): temperature & dewpoint: 12.01.2020 12:00:00 - 18.01.2020 12:00:00 (CET)F16-A, Netherlands (6206): wind speed & gusts: 12.01.2020 12:00:00 - 18.01.2020 12:00:00 (CET)F16-A, Netherlands (6206): wind direction: 12.01.2020 12:00:00 - 18.01.2020 12:00:00 (CET)F16-A, Netherlands (6206): reduced air pressure: 12.01.2020 12:00:00 - 18.01.2020 12:00:00 (CET)F16-A, Netherlands (6206): visibility: 12.01.2020 12:00:00 - 18.01.2020 12:00:00 (CET)
Date & Time tt [°C] td [°C] ff [km/h] ff [kn] fx [km/h] fx [kn] dd ppp [hPa] vv [km]
18.01.2020 12:00:00 8,0 3,0 29 16 - - WNW 1020,0 10
18.01.2020 11:00:00 7,6 1,6 44 24 43 23 WNW 1019,3 10
18.01.2020 10:00:00 7,3 2,9 39 21 47 25 WNW 1018,3 10
18.01.2020 09:00:00 7,3 3,0 39 21 47 25 WNW 1017,2 10
18.01.2020 08:00:00 7,4 3,6 31 17 54 29 WNW 1016,4 10
18.01.2020 07:00:00 6,9 3,6 37 20 40 21 W 1015,5 10
18.01.2020 06:00:00 7,0 3,3 35 19 43 23 W 1014,8 10
18.01.2020 05:00:00 5,5 2,8 37 20 54 29 W 1014,6 5
18.01.2020 04:00:00 6,8 4,5 39 21 43 23 WSW 1013,8 10
18.01.2020 03:00:00 7,2 3,7 44 24 47 25 WSW 1013,6 10
18.01.2020 02:00:00 7,2 3,5 46 25 47 25 WSW 1012,8 10
18.01.2020 01:00:00 7,4 3,0 50 27 50 27 WSW 1012,5 10
18.01.2020 00:00:00 7,3 3,9 50 27 50 27 WSW 1011,7 10
17.01.2020 23:00:00 6,0 2,0 50 27 54 29 W 1011,4 10
17.01.2020 22:00:00 6,4 3,0 39 21 72 39 W 1010,5 10
17.01.2020 21:00:00 6,4 3,6 55 30 68 37 W 1008,9 10
17.01.2020 20:00:00 8,0 6,0 35 19 36 19 SW 1008,5 10
17.01.2020 19:00:00 8,2 6,6 35 19 36 19 SW 1008,1 10
17.01.2020 18:00:00 8,4 7,1 37 20 40 21 - 1008,1 10
17.01.2020 17:00:00 8,5 7,1 41 22 40 21 - 1008,1 10
17.01.2020 16:00:00 8,7 7,6 39 21 43 23 SSW 1007,9 10
17.01.2020 15:00:00 8,9 7,9 44 24 47 25 SSW 1007,7 10
17.01.2020 14:00:00 8,8 8,3 46 25 47 25 SSW 1007,9 10
17.01.2020 13:00:00 8,6 8,3 46 25 47 25 S 1008,4 9
17.01.2020 12:00:00 8,4 7,9 42 23 43 23 S 1009,1 10
17.01.2020 11:00:00 8,1 6,8 37 20 36 19 S 1009,5 10
17.01.2020 10:00:00 8,1 7,4 35 19 32 18 S 1009,4 10
17.01.2020 09:00:00 8,5 8,1 37 20 36 19 SSW 1009,6 8
17.01.2020 08:00:00 8,6 8,0 37 20 43 23 SSW 1009,5 9
17.01.2020 07:00:00 8,8 7,6 39 21 43 23 SSW 1010,0 10
17.01.2020 06:00:00 9,2 7,5 54 29 54 29 SSW 1009,8 10
17.01.2020 05:00:00 9,3 7,3 54 29 61 33 S 1010,0 10
17.01.2020 04:00:00 9,5 7,3 61 33 61 33 S 1010,2 10
17.01.2020 03:00:00 9,6 7,2 65 35 65 35 S 1010,5 10
17.01.2020 02:00:00 9,9 7,1 68 37 68 37 S 1010,7 10
17.01.2020 01:00:00 10,0 7,0 68 37 72 39 S 1011,3 10
17.01.2020 00:00:00 10,0 7,1 68 37 72 39 S 1011,4 10
16.01.2020 23:00:00 9,7 7,2 74 40 79 43 S 1011,4 10
16.01.2020 22:00:00 9,7 7,2 74 40 76 41 S 1011,8 10
16.01.2020 21:00:00 9,6 7,0 74 40 83 45 S 1012,4 10
16.01.2020 20:00:00 9,2 7,0 72 39 72 39 SSE 1013,3 10
16.01.2020 19:00:00 8,9 6,8 63 34 68 37 SSE 1013,8 10
16.01.2020 18:00:00 8,7 6,3 65 35 65 35 SSE 1014,8 10
16.01.2020 17:00:00 8,5 5,8 59 32 61 33 SSE 1015,6 10
16.01.2020 16:00:00 8,3 6,1 54 29 58 31 SSE 1016,0 10
16.01.2020 15:00:00 8,2 5,6 54 29 58 31 S 1017,3 10
16.01.2020 14:00:00 8,4 5,6 57 31 58 31 S 1018,3 10
16.01.2020 13:00:00 8,5 6,3 55 30 54 29 S 1019,3 10
16.01.2020 12:00:00 8,4 7,2 48 26 50 27 S 1019,9 10
16.01.2020 11:00:00 8,8 6,9 52 28 50 27 S 1020,2 10
16.01.2020 10:00:00 8,5 6,5 44 24 47 25 SSW 1020,1 10
16.01.2020 09:00:00 8,2 6,3 42 23 43 23 - 1020,0 10
16.01.2020 08:00:00 8,2 6,0 42 23 47 25 - 1019,6 10
16.01.2020 07:00:00 8,2 5,6 41 22 43 23 SW 1019,4 10
16.01.2020 06:00:00 8,1 5,3 44 24 47 25 SW 1018,7 10
16.01.2020 05:00:00 8,1 5,2 42 23 50 27 SW 1018,4 10
16.01.2020 04:00:00 8,3 4,6 48 26 50 27 SW 1017,3 10
16.01.2020 03:00:00 8,2 5,0 46 25 47 25 SW 1016,8 10
16.01.2020 02:00:00 8,3 4,8 48 26 54 29 SW 1015,9 10
16.01.2020 01:00:00 8,4 4,6 43 23 58 31 SW 1015,1 17
16.01.2020 00:00:00 8,3 4,6 50 27 50 27 SW 1014,3 10
15.01.2020 23:00:00 8,3 4,9 50 27 50 27 SW 1013,0 10
15.01.2020 22:00:00 8,2 5,3 50 27 54 29 SW 1012,2 10
15.01.2020 21:00:00 8,3 5,1 52 28 54 29 SW 1011,2 10
15.01.2020 20:00:00 8,1 5,8 54 29 54 29 SW 1010,2 10
15.01.2020 19:00:00 8,2 5,5 52 28 58 31 SW 1008,9 10
15.01.2020 18:00:00 8,1 5,6 52 28 50 27 SW 1007,6 10
15.01.2020 17:00:00 8,1 5,4 48 26 47 25 SW 1006,2 10
15.01.2020 16:00:00 8,0 4,5 46 25 47 25 SW 1004,9 10
15.01.2020 15:00:00 7,9 4,0 42 23 47 25 S 1003,8 10
15.01.2020 14:00:00 7,7 4,4 39 21 40 21 SW 1003,4 10
15.01.2020 13:00:00 7,5 4,3 31 17 40 21 SW 1002,7 10
15.01.2020 12:00:00 7,5 5,1 39 21 43 23 - 1002,2 10
15.01.2020 11:00:00 7,6 5,2 41 22 43 23 - 1001,8 10
15.01.2020 10:00:00 7,5 5,4 37 20 40 21 SSW 1001,2 10
15.01.2020 09:00:00 7,3 6,3 28 15 32 18 SSW 1000,2 10
15.01.2020 08:00:00 7,2 5,6 21 11 29 16 W 999,7 10
15.01.2020 07:00:00 7,5 6,7 21 11 25 14 WSW 998,9 10
15.01.2020 06:00:00 7,7 7,3 21 11 32 18 WSW 997,6 6
15.01.2020 05:00:00 7,7 7,2 26 14 32 18 WSW 996,6 8
15.01.2020 04:00:00 8,2 7,8 35 19 54 29 WSW 996,2 9
15.01.2020 03:00:00 9,4 9,2 57 31 61 33 SW 995,3 2,8
15.01.2020 02:00:00 9,5 9,3 52 28 68 37 SW 994,6 2,8
15.01.2020 01:00:00 9,7 9,6 78 42 83 45 - 994,2 2,8
15.01.2020 00:00:00 9,8 9,5 70 38 79 43 - 993,5 4,0
14.01.2020 23:00:00 10,0 9,5 91 49 101 54 - 992,3 3,3
14.01.2020 22:00:00 11,4 9,4 102 55 104 56 SSW 991,0 7
14.01.2020 21:00:00 10,9 9,7 98 53 104 56 SSW 990,6 7
14.01.2020 20:00:00 11,5 9,3 98 53 104 56 SSW 990,1 8
14.01.2020 19:00:00 10,7 9,6 93 50 97 53 S 990,1 8
14.01.2020 18:00:00 9,7 9,4 96 52 97 53 S 990,7 8
14.01.2020 17:00:00 8,6 8,2 70 38 79 43 S 991,5 6
14.01.2020 16:00:00 8,8 7,5 68 37 68 37 S 994,2 8
14.01.2020 15:00:00 9,0 7,5 63 34 65 35 S 995,6 9
14.01.2020 14:00:00 9,0 6,9 63 34 61 33 SSW 996,3 10
14.01.2020 13:00:00 8,8 6,3 55 30 61 33 SSW 997,2 10
14.01.2020 12:00:00 8,4 6,2 52 28 54 29 SSW 997,8 10
14.01.2020 11:00:00 8,4 5,9 46 25 50 27 SW 998,0 10
14.01.2020 10:00:00 8,3 5,6 50 27 50 27 SW 997,3 10
14.01.2020 09:00:00 8,2 5,6 50 27 50 27 SW 996,6 10
14.01.2020 08:00:00 8,3 5,4 50 27 50 27 SW 996,1 10
14.01.2020 07:00:00 8,2 5,3 50 27 54 29 SW 995,2 10
14.01.2020 06:00:00 8,1 5,5 50 27 54 29 SW 994,8 10
14.01.2020 05:00:00 7,9 6,0 48 26 50 27 S 994,2 10
14.01.2020 04:00:00 7,6 5,6 42 23 54 29 - 994,2 10
14.01.2020 03:00:00 7,1 5,4 41 22 43 23 - 994,3 10
14.01.2020 02:00:00 6,9 6,0 41 22 47 25 SW 994,3 10
14.01.2020 01:00:00 7,6 6,5 87 47 94 51 - 994,2 4,7
14.01.2020 00:00:00 9,2 8,2 93 50 97 53 S 993,5 8
13.01.2020 23:00:00 8,8 8,3 93 50 94 51 S 994,6 9
13.01.2020 22:00:00 9,0 8,2 85 46 90 49 S 995,8 10
13.01.2020 21:00:00 8,0 6,7 78 42 79 43 S 997,8 10
13.01.2020 20:00:00 8,1 6,8 74 40 76 41 S 999,8 10
13.01.2020 19:00:00 8,0 5,5 74 40 76 41 S 1001,5 10
13.01.2020 18:00:00 7,8 5,0 63 34 72 39 S 1003,7 10
13.01.2020 17:00:00 7,6 4,8 70 38 68 37 S 1005,2 10
13.01.2020 16:00:00 8,1 6,0 65 35 65 35 S 1006,9 10
13.01.2020 15:00:00 8,4 6,5 43 23 54 29 S 1007,8 13
13.01.2020 14:00:00 8,2 6,3 46 25 50 27 SSW 1009,1 8
13.01.2020 13:00:00 7,8 5,6 42 23 47 25 - 1010,4 10
13.01.2020 12:00:00 7,8 5,8 39 21 43 23 - 1011,7 10
13.01.2020 11:00:00 7,8 5,9 44 24 47 25 - 1012,7 10
13.01.2020 10:00:00 7,4 5,3 35 19 36 19 SSW 1013,3 10
13.01.2020 09:00:00 7,4 5,3 35 19 36 19 - 1013,4 10
13.01.2020 08:00:00 7,3 5,1 34 18 36 19 - 1013,7 10
13.01.2020 07:00:00 7,3 5,6 35 19 36 19 - 1014,3 10
13.01.2020 06:00:00 7,2 5,5 35 19 40 21 SSW 1014,7 10
13.01.2020 05:00:00 7,4 5,8 37 20 40 21 - 1015,0 10
13.01.2020 04:00:00 7,5 5,5 31 17 32 18 - 1015,6 10
13.01.2020 03:00:00 7,5 5,6 28 15 29 16 SW 1016,0 10
13.01.2020 02:00:00 7,6 5,6 26 14 32 18 SW 1016,6 10
13.01.2020 01:00:00 7,8 5,1 34 18 32 18 WSW 1017,0 10
13.01.2020 00:00:00 7,9 5,4 29 16 32 18 WSW 1016,9 10
12.01.2020 23:00:00 8,1 5,1 35 19 36 19 WSW 1016,7 10
12.01.2020 22:00:00 8,1 5,4 35 19 36 19 WSW 1016,8 10
12.01.2020 21:00:00 8,1 5,5 35 19 40 21 W 1015,9 10
12.01.2020 20:00:00 8,1 5,8 39 21 40 21 W 1015,4 10
12.01.2020 19:00:00 8,1 5,7 37 20 36 19 W 1014,5 10
12.01.2020 18:00:00 7,9 5,9 29 16 47 25 W 1014,0 10
12.01.2020 17:00:00 7,3 4,9 44 24 68 37 WNW 1012,1 10
12.01.2020 16:00:00 8,3 8,0 24 13 25 14 W 1010,9 10
12.01.2020 15:00:00 8,0 7,8 26 14 29 16 WSW 1010,4 1,6
12.01.2020 14:00:00 8,4 8,0 31 17 40 21 WSW 1010,3 10
12.01.2020 13:00:00 8,6 8,2 46 25 47 25 SW 1009,8 10
12.01.2020 12:00:00 8,4 8,1 34 18 40 21 WSW 1009,8 7

tt = temperature
td = dewpoint
ff = wind speed
fx = gusts
dd = wind direction
ppp = reduced air pressure
vv = visibility

Next stations